Flag for China Weather past 2 weeks in Xiamen, Fujian, China

Now
55 °F

Mostly cloudy.


Feels Like: 54 °F
Forecast: 56 / 62 °F
Wind: 6 mph from East

Location: Xiamen Airport

Current Time: Dec 28, 2014 at 6:22:53 AM

Latest Report: Dec 28, 2014 at 6:00 AM


Visibility: N/A

Pressure: 30.18 "Hg

Humidity: 88%

Dew point: 52 °F

Location of XiamenLocation

Historic Weather in Xiamen — Graph

°F

Xiamen temperature yesterday

Maximum temperature yesterday: 61 °F (at 2:00 PM)
Minimum temperature yesterday: 54 °F (at 8:00 AM)
Average temperature yesterday: 57 °F

Past Weeks' High & Low Weather Summary

 TemperatureHumidityPressure
High70 °F (Dec 24, 1:00 PM)100% (Dec 19, 9:00 PM)30.45 "Hg (Dec 19, 9:00 PM)
Low48 °F (Dec 17, 4:00 AM)17% (Dec 17, 3:00 PM)30.09 "Hg (Dec 15, 3:00 PM)
Average57 °F59%30.25 "Hg
* Reported Dec 13 5:00 AM — Dec 28 5:00 AM, Xiamen, Weather by CustomWeather, © 2014

Note: Actual official high and low records may vary slightly from our data, if they occured in-between our weather recording intervals... More about our weather records

Advertising

Xiamen weather history for previous 24 hours

 ConditionsComfort  
Time TempWeatherWind HumidityBarometerVisibility
5:00 AM
Dec 28
55 °FLight rain. Mostly cloudy.3 mph94%30.18 "Hg6 mi
4:00 AM55 °FMostly cloudy.1 mph94%30.18 "HgN/A
3:00 AM57 °FLight rain. Mostly cloudy.6 mph82%30.21 "HgN/A
2:00 AM57 °FMostly cloudy.1 mph88%30.21 "HgN/A
1:00 AM57 °FMostly cloudy.8 mph88%30.21 "HgN/A
12:00 AM57 °FMostly cloudy.8 mph82%30.24 "HgN/A
11:00 PM
Dec 27
57 °FLight rain. Mostly cloudy.10 mph88%30.24 "HgN/A
10:00 PM57 °FLight rain. Mostly cloudy.15 mph82%30.24 "HgN/A
9:00 PM59 °FMostly cloudy.13 mph82%30.24 "Hg5 mi
8:00 PM59 °FMostly cloudy.13 mph82%30.24 "HgN/A
7:00 PM59 °FLight rain. Mostly cloudy.10 mph82%30.24 "HgN/A
6:00 PM59 °FMostly cloudy.8 mph82%30.24 "HgN/A
5:00 PM59 °FMostly cloudy.8 mph82%30.21 "HgN/A
4:00 PM61 °FBroken clouds.8 mph77%30.21 "HgN/A
3:00 PM61 °FPartly sunny.10 mph77%30.18 "HgN/A
2:00 PM61 °FScattered clouds.6 mph77%30.21 "HgN/A
1:00 PM59 °FPartly sunny.6 mph88%30.21 "Hg6 mi
12:00 PM57 °FPartly sunny.3 mph94%30.24 "Hg6 mi
11:00 AM55 °FLight rain. Partly sunny.3 mph94%30.27 "Hg4 mi
10:00 AM55 °FRain showers. Fog.1 mph94%30.27 "Hg3 mi
9:00 AM54 °FRain showers. Fog.3 mph100%30.27 "Hg2 mi
8:00 AM54 °FSprinkles. Fog.1 mph100%30.24 "Hg3 mi
7:00 AM55 °FSprinkles. Partly sunny.3 mph88%30.24 "Hg4 mi
6:00 AM55 °FSprinkles. Passing clouds.13 mph82%30.21 "HgN/A
Weather by CustomWeather, © 2014

See weather overviewHow to use our weather pages